This demonstration page uses our WeatherBlox Daily Observations layout. Learn more.

36.17497, -115.13722

Hourly Observations for November 8, 2019

Temp ( °F °C ) Dew Point ( °F °C ) Humidity (%) Winds ( mph kmh ) Pressure ( in mb ) Visibility ( mi km ) Precip ( " mm )
12:53 am 00:53 Clear 55 12.8 19 -7.2 24 24 Calm 30.24 1024 10 16.0934 0 0
1:53 am 01:53 Clear 55 12.8 20 -6.7 25 25 W 5 7 30.23 1024 10 16.0934 0 0
2:53 am 02:53 Clear 55 12.8 17 -8.3 22 22 WNW 8 13 30.23 1024 10 16.0934 0 0
3:53 am 03:53 Clear 52 11.1 22 -5.6 31 31 NW 3 6 30.25 1024 10 16.0934 0 0
4:53 am 04:53 Clear 51 10.6 21 -6.1 31 31 WNW 9 15 30.27 1025 10 16.0934 0 0
5:53 am 05:53 Clear 54 12.2 16 -8.9 22 22 NNW 9 15 30.28 1025 10 16.0934 0 0
6:53 am 06:53 Sunny 51 10.6 17 -8.3 26 26 SE 3 6 30.32 1027 10 16.0934 0 0
7:53 am 07:53 Sunny 58 14.4 16 -8.9 19 19 Calm 30.32 1027 10 16.0934 0 0
8:53 am 08:53 Sunny 64 17.8 20 -6.7 18 18 WSW 3 6 30.33 1027 10 16.0934 0 0
9:53 am 09:53 Sunny 68 20 18 -7.8 15 15 Calm 30.31 1027 10 16.0934 0 0
10:53 am 10:53 Sunny 71 21.7 17 -8.3 13 13 Calm 30.3 1026 10 16.0934 0 0
11:53 am 11:53 Sunny 75 23.9 16 -8.9 10 10 Calm 30.26 1025 10 16.0934 0 0
12:53 pm 12:53 Sunny 76 24.4 16 -8.9 10 10 Calm 30.23 1024 10 16.0934 0 0
1:53 pm 13:53 Sunny 79 26.1 16 -8.9 9 9 NE 3 6 30.2 1023 10 16.0934 0 0
2:53 pm 14:53 Sunny 78 25.6 16 -8.9 9 9 Calm 30.19 1023 10 16.0934 0 0
3:53 pm 15:53 Sunny 78 25.6 16 -8.9 9 9 Calm 30.19 1022 10 16.0934 0 0
4:53 pm 16:53 Clear 74 23.3 18 -7.8 12 12 W 5 7 30.19 1022 10 16.0934 0 0
5:53 pm 17:53 Clear 68 20 21 -6.1 17 17 W 7 11 30.19 1023 10 16.0934 0 0
6:53 pm 18:53 Clear 64 17.8 19 -7.2 18 18 WNW 7 11 30.21 1023 10 16.0934 0 0
7:53 pm 19:53 Clear 64 17.8 18 -7.8 17 17 W 5 7 30.2 1023 10 16.0934 0 0
8:53 pm 20:53 Clear 61 16.1 17 -8.3 18 18 NW 3 6 30.21 1023 10 16.0934 0 0
9:53 pm 21:53 Clear 58 14.4 19 -7.2 22 22 Calm 30.21 1023 10 16.0934 0 0
10:53 pm 22:53 Clear 59 15 19 -7.2 21 21 Calm 30.2 1023 10 16.0934 0 0
11:53 pm 23:53 Clear 56 13.3 16 -8.9 21 21 Calm 30.19 1023 10 16.0934 0 0

Powered by AerisWeather